Regional Weather Roundup
Issued by NWS Northern Indiana

Home | Current Version | Previous Version | Graphics & Text | Print | Product List | Glossary On
Versions: 1 2 3 4 5 6 7 8 9 10 11 12 13 14 15 16 17 18 19 20 21 22 23 24 25 26 27 28 29 30 31 32 33 34 35 36 37 38 39 40 41 42 43 44 45 46 47 48 49 50
000
ASUS43 KIWX 010200
RWRIWX

KIWX WEATHER ROUNDUP
NATIONAL WEATHER SERVICE NORTHERN INDIANA
900 PM EST SAT FEB 28 2015

NOTE: "FAIR" INDICATES FEW OR NO CLOUDS BELOW 12,000 FEET WITH NO
SIGNIFICANT WEATHER AND/OR OBSTRUCTIONS TO VISIBILITY.

* THESE STATIONS ARE NOT UNDER NWS QUALITY CONTROL. THEY ALSO MAY NOT
  REPORT WEATHER SUCH AS PRECIPITATION OR FOG.

INZ001>027-010300-
NORTHERN INDIANA

CITY           SKY/WX    TMP DP  RH WIND       PRES   REMARKS
GARY*          LGT SNOW  19  12  73 SE5       30.55F WCI  13
VALPARAISO     LGT SNOW  19   9  65 SE10      30.53F WCI   7
SOUTH BEND     LGT SNOW  20   8  60 S13       30.55S WCI   7
GOSHEN         CLOUDY    18   6  59 SE9       30.54F WCI   7
ANGOLA*        CLOUDY    16   3  57 SE7       30.54S WCI   6
FORT WAYNE     CLOUDY    18   6  59 E7        30.56S WCI   9
PERU/GRISSOM   LGT SNOW  19  14  79 E9        30.53S FOG     WCI   9

$$
INZ028>050-010300-
CENTRAL INDIANA

CITY           SKY/WX    TMP DP  RH WIND       PRES   REMARKS
LAFAYETTE      LGT SNOW  20  18  92 SE7       30.54S VSB 1   WCI  11
KOKOMO*        CLOUDY    19  14  79 E10       30.54S WCI   8
MUNCIE*        LGT SNOW  19  14  81 E7        30.53R VSB 1   WCI  10
INDIANAPOLIS   SNOW      21  18  88 E6        30.51R VSB 1/2 WCI  13

$$
MIZ043>046-050>051-056>058-064>065-071>073-077>080-010300-
SOUTHWEST LOWER MICHIGAN

CITY           SKY/WX    TMP DP  RH WIND       PRES   REMARKS
BATTLE CREEK   CLOUDY    18   3  52 SE9       30.54S WCI   7
BENTON HARBOR  CLOUDY    18   4  54 S5        30.56R WCI  11
COLDWATER*     CLOUDY    16   2  54 SE6       30.54S WCI   7
HILLSDALE*     CLOUDY    15   1  54 SE5       30.52S WCI   8
HOLLAND        CLOUDY    15   4  61 CALM      30.55S
GRAND RAPIDS   CLOUDY    16   0  49 S6        30.54F WCI   7
KALAMAZOO      CLOUDY    18   2  49 S6        30.54S WCI  10
STURGIS*       CLOUDY    16   3  57 SE6       30.54S WCI   7
THREE RIVERS*  CLOUDY    18   3  52 S9        30.55S WCI   7

$$
OHZ001>008-015>018-024>025-010300-
NORTHWEST OHIO

CITY           SKY/WX    TMP DP  RH WIND       PRES   REMARKS
DEFIANCE       CLOUDY    18   4  54 E6        30.58S WCI  10
FINDLAY        CLOUDY    19   3  49 E7        30.54F WCI  10
TOLEDO EXPRESS CLOUDY    16   4  59 E6        30.58F WCI   7
TOLEDO METCALF CLOUDY    15   4  61 E5        30.60F WCI   8
LIMA           CLOUDY    20   6  55 E6        30.53F WCI  12

$$
AND FOR LAKE MICHIGAN COASTAL AND OPEN LAKE BUOY OBSERVATIONS

STATION/POSITION TEMP    WIND        PRES    VSBY  WAVE
                 AIR SEA DIR/SP/G                  HT/PER
                 (F)     (DEG/KT/KT) (MB)    (MI)  (FT/S)
CALUMET HARBOR    18     140/  5/  8 1032.9F
MICHIGAN CITY     20     110/  5/  8   N/A
SAINT JOSEPH      20     170/  2/  5 1034.2F

$$
&&


USA.gov is the U.S. government's official web portal to all federal, state and local government web resources and services.